Regional Weather Roundup
Issued by NWS

Home | Current Version | Previous Version | Text Only | Print | Product List | Glossary On
Versions: 1 2 3 4 5 6 7 8 9 10 11 12 13 14 15 16 17 18 19 20 21 22 23 24 25 26 27 28 29 30 31 32 33 34 35 36 37 38 39 40 41 42 43 44 45 46 47 48 49 50
000
ASUS44 KMEG 241000
RWRTN
TENNESSEE HOURLY STATE WEATHER ROUNDUP
NATIONAL WEATHER SERVICE MEMPHIS TN
500 AM CDT THU APR 24 2014

TNZ002-004-019-021-049-052-054-088>092-241100-
WEST TENNESSEE

CITY           SKY/WX    TMP DP  RH WIND       PRES   REMARKS
MEMPHIS INTL   CLEAR     58  39  49 CALM      29.91R
NWS MEMPHIS      N/A     51 N/A N/A MISG        N/A
JACKSON        PTCLDY    49  36  61 E3        29.93F
DYERSBURG      MOCLDY    50  34  53 SE5       29.94S
UNION CITY     CLEAR     46  39  76 CALM      29.92F
LEXINGTON      CLEAR     41  37  87 CALM      29.94S
$$

TNZ008-025-027-028-033-062-065-066-241100-
NORTH MIDDLE TENNESSEE

CITY           SKY/WX    TMP DP  RH WIND       PRES   REMARKS
NASHVILLE      CLEAR     44  37  76 CALM      29.99R
CLARKSVILLE    CLEAR     45  36  70 E7        29.97S
COOKEVILLE     CLEAR     36  34  93 CALM      29.98S
CROSSVILLE     CLEAR     42  35  76 CALM      30.01S
$$

TNZ061-075-076-078-094-096-097-241100-
SOUTH MIDDLE TENNESSEE

CITY           SKY/WX    TMP DP  RH WIND       PRES   REMARKS
TULLAHOMA      CLEAR     41  36  81 CALM      29.98S
WINCHESTER     CLEAR     39  37  93 CALM      29.98S
MCMINNVILLE    CLEAR     39  37  93 CALM      29.98R
COLUMBIA       CLEAR     41  41 100 CALM      29.96R
$$

TNZ017-018-042-046-047-241100-
NORTHEAST TENNESSEE

CITY           SKY/WX    TMP DP  RH WIND       PRES   REMARKS
TRI CITIES     PTCLDY    38  29  70 S3        30.05R
ELIZABETHTON   SUNNY     34  30  86 CALM      30.05R
$$

TNZ012-013-036-069-073-074-241100-
CENTRAL EAST TENNESSEE

CITY           SKY/WX    TMP DP  RH WIND       PRES   REMARKS
KNOXVILLE      CLEAR     45  34  65 N5        30.01R
OAK RIDGE      CLEAR     45  36  70 NE3       30.03S
$$

TNZ083-085-099-241100-
SOUTHEAST TENNESSEE

CITY           SKY/WX    TMP DP  RH WIND       PRES   REMARKS
CHATTANOOGA    CLEAR     46  43  89 SW6       30.01R
$$

SKY/WX REPORTED AS FAIR MEANS FEW OR NO CLOUDS BELOW
12 THOUSAND FEET.




USA.gov is the U.S. government's official web portal to all federal, state and local government web resources and services.